DAL1212 KMCO-KMIA

Flight info

Callsign DAL1212
Flight time N/A
Altitude 23000
Route DDANY3 DDANY CSTAL2
Aircraft BCS3/M-SBDE2E3GIRWXY/LB1

Departure

Time 2026-04-26 22:54
Airport Orlando International Airport (KMCO)

Arrival

Time N/A
Airport Miami International Airport (KMIA)
Time Latitude Longitude Altitude Speed Heading
2026-04-26 22:31 28.42636 -81.31558 102 ft 0 kts 131°
2026-04-26 22:40 28.42644 -81.31570 102 ft 3 kts 131°
2026-04-26 22:40 28.42656 -81.31585 100 ft 3 kts 131°
2026-04-26 22:40 28.42671 -81.31599 101 ft 3 kts 163°
2026-04-26 22:40 28.42691 -81.31601 101 ft 3 kts 200°
2026-04-26 22:41 28.42708 -81.31589 102 ft 3 kts 236°
2026-04-26 22:46 28.42710 -81.31594 102 ft 5 kts 275°
2026-04-26 22:46 28.42713 -81.31780 105 ft 22 kts 277°
2026-04-26 22:46 28.42904 -81.31841 103 ft 43 kts
2026-04-26 22:47 28.43194 -81.31841 101 ft 39 kts
2026-04-26 22:47 28.43282 -81.31791 102 ft 3 kts 111°
2026-04-26 22:47 28.43207 -81.31818 102 ft 16 kts 259°
2026-04-26 22:47 28.43273 -81.31849 102 ft 18 kts
2026-04-26 22:48 28.43450 -81.31857 104 ft 34 kts 354°
2026-04-26 22:48 28.43712 -81.31895 106 ft 27 kts
2026-04-26 22:48 28.43829 -81.31840 108 ft 0 kts 56°
2026-04-26 22:49 28.43843 -81.31796 106 ft 15 kts 80°
2026-04-26 22:49 28.43886 -81.31687 106 ft 17 kts 22°
2026-04-26 22:50 28.43921 -81.31622 104 ft 8 kts 90°
2026-04-26 22:50 28.43922 -81.31519 103 ft 23 kts 89°
2026-04-26 22:50 28.43935 -81.31248 110 ft 42 kts 86°
2026-04-26 22:50 28.43941 -81.31048 111 ft 24 kts 90°
2026-04-26 22:51 28.43942 -81.30849 123 ft 12 kts 96°
2026-04-26 22:51 28.43937 -81.30726 123 ft 45 kts 93°
2026-04-26 22:51 28.43906 -81.30259 104 ft 54 kts 93°
2026-04-26 22:51 28.43851 -81.29903 104 ft 42 kts 130°
2026-04-26 22:52 28.43604 -81.29808 105 ft 29 kts 178°
2026-04-26 22:52 28.43549 -81.29718 104 ft 22 kts 84°
2026-04-26 22:52 28.43470 -81.29589 106 ft 11 kts 174°
2026-04-26 22:52 28.43454 -81.29596 106 ft 0 kts 202°
2026-04-26 22:53 28.43407 -81.29589 107 ft 0 kts 168°
2026-04-26 22:53 28.43393 -81.29588 108 ft 0 kts 176°
2026-04-26 22:54 28.43064 -81.29594 106 ft 105 kts 179°
2026-04-26 22:54 28.41958 -81.29572 263 ft 201 kts 182°
2026-04-26 22:54 28.40409 -81.29580 1233 ft 240 kts 180°
2026-04-26 22:54 28.38679 -81.29741 1982 ft 253 kts 180°
2026-04-26 22:55 28.37034 -81.29184 2912 ft 255 kts 144°
2026-04-26 22:55 28.35740 -81.27835 3750 ft 259 kts 136°
2026-04-26 22:55 28.34457 -81.26304 4606 ft 264 kts 135°
2026-04-26 22:55 28.33238 -81.24797 5379 ft 268 kts 134°
2026-04-26 22:56 28.31972 -81.23220 6191 ft 272 kts 134°
2026-04-26 22:56 28.30797 -81.21522 6937 ft 278 kts 117°
2026-04-26 22:56 28.30160 -81.19419 7685 ft 283 kts 105°
2026-04-26 22:56 28.29747 -81.17213 8411 ft 288 kts 100°
2026-04-26 22:57 28.29452 -81.14937 9141 ft 292 kts 97°
2026-04-26 22:57 28.29234 -81.12629 9855 ft 296 kts 95°
2026-04-26 22:57 28.29063 -81.10276 10254 ft 311 kts 94°
2026-04-26 22:57 28.28921 -81.07775 10382 ft 332 kts 93°
2026-04-26 22:58 28.28796 -81.05061 10532 ft 351 kts 92°
2026-04-26 22:58 28.28681 -81.02242 10764 ft 364 kts 92°
2026-04-26 22:58 28.28566 -80.99340 11074 ft 373 kts 92°
2026-04-26 22:58 28.28449 -80.96388 11428 ft 379 kts 92°
2026-04-26 22:59 28.28326 -80.93389 11804 ft 383 kts 92°
2026-04-26 22:59 28.28179 -80.90365 12165 ft 388 kts 95°
2026-04-26 22:59 28.27696 -80.87381 12499 ft 392 kts 103°
2026-04-26 22:59 28.26949 -80.84324 12867 ft 396 kts 106°
2026-04-26 23:00 28.26090 -80.81346 13209 ft 399 kts 108°